Погода в Прибельском

Россия / Республика Башкортостан     54°22′31″N   56°26′46″E
темп.,
°C
ветер,
м/с
пор.,
м/с
влажн.,
%
обл.,
%
осадки,
мм/ч
давл.,
гПа
погр.,
м
10 апреля, сб
сб1023:00+7ссв1187100 0.0 102610
02:00+7в1189100 0.0 102610
05:00+6вюв119197 0.0 102810
08:00+4ююз1198100 0.0 102928
11:00+9ююв017692 0.0 1030169
14:00+15ю245698 0.0 1029501
17:00+17ююв5959100 0.0 1029609
20:00+12ююв3675100 0.0 102983
11 апреля, вс
вс1123:00+10ю2281100 0.0 103116
02:00+8ю2288100 0.0 103135
05:00+6ююв3591100 0.0 103295
08:00+6ююв3884100 0.0 1032221
11:00+11ю5105360 0.0 1033528
14:00+16ююз694333 0.0 1032806
17:00+16ююз584725 0.0 1032828
20:00+12юз3869100 0.0 1033161
12 апреля, пн
пн1223:00+9ю3578100 0.0 1035103
02:00+7ю2385100 0.0 103560
05:00+6ю2288100 0.0 103521
08:00+7ю2383100 0.0 103692
11:00+12ю225990 0.0 1036411
14:00+16ююз1147100 0.0 1035680
17:00+17с114438 0.0 1035828
20:00+13с226236 0.0 103411
13 апреля, вт
вт1323:00+11св227420 0.0 103510
02:00+9св118478 0.0 103510
05:00+8ююв118591 0.0 103610
08:00+9ююв128056 0.0 103646
11:00+14ююз235827 0.0 1036442
14:00+17ююз33485 0.0 1034914
17:00+18юз22427 0.0 10331088
20:00+14зсз11545 0.0 103311
14 апреля, ср
ср1423:00+12ююз11575 0.0 103310
02:00+9ю225536 0.0 103210
05:00+7ю22635 0.0 103311
08:00+8ю23675 0.0 103284
11:00+13ююз23475 0.0 1031428
14:00+17юз22335 0.0 1029873
17:00+18з22295 0.0 1028974
20:00+14с11425 0.0 102711